This demonstration page uses our WeatherBlox Daily Observations layout. Learn more.

40.92945, -100.16068

Hourly Observations for June 3, 2017

Temp ( °F °C ) Dew Point ( °F °C ) Humidity (%) Winds ( mph kmh ) Pressure ( in mb ) Visibility ( mi km ) Precip ( " mm )
12:15 am 00:15 Clear 69 20.5 58 14.3 68 68 S 8 13 29.91 1013 10 16.0934 0 0
12:35 am 00:35 Clear 69 20.5 58 14.3 68 68 S 9 15 29.94 1014 10 16.0934 0 0
12:55 am 00:55 Partly Cloudy 69 20.7 58 14.3 67 67 S 10 17 29.91 1013 10 16.0934 0 0
1:15 am 01:15 Partly Cloudy 68 20.1 58 14.3 69 69 S 10 17 29.91 1013 10 16.0934 0 0
1:35 am 01:35 Clear 68 19.9 58 14.5 71 71 SSW 9 15 29.91 1013 10 16.0934 0 0
1:55 am 01:55 Clear 67 19.3 58 14.5 74 74 S 8 13 29.94 1014 10 16.0934 0 0
2:15 am 02:15 Clear 66 19.1 58 14.5 75 75 S 7 11 29.94 1014 10 16.0934 0 0
2:35 am 02:35 Clear 65 18.5 58 14.5 78 78 S 6 9 29.94 1014 10 16.0934 0 0
2:55 am 02:55 Clear 65 18.1 58 14.5 80 80 SE 3 6 29.94 1014 10 16.0934 0 0
3:15 am 03:15 Clear 64 18 58 14.5 80 80 SSE 6 9 29.94 1014 10 16.0934 0 0
3:35 am 03:35 Clear 64 17.5 58 14.2 81 81 S 5 7 29.94 1014 10 16.0934 0 0
3:55 am 03:55 Clear 63 17.3 58 14.2 82 82 S 6 9 29.94 1014 10 16.0934 0 0
4:15 am 04:15 Clear 62 16.9 58 14.2 84 84 SSE 7 11 29.94 1014 10 16.0934 0 0
4:35 am 04:35 Clear 62 16.8 58 14.5 86 86 SSE 7 11 29.94 1014 10 16.0934 0 0
4:55 am 04:55 Clear 62 16.7 58 14.5 87 87 Calm 29.94 1014 10 16.0934 0 0
5:15 am 05:15 Clear 62 16.8 58 14.2 85 85 SE 3 6 29.94 1014 10 16.0934 0 0
5:35 am 05:35 Clear 61 16 57 14.1 89 89 Calm 29.97 1015 10 16.0934 0 0
5:55 am 05:55 Clear 61 16 58 14.3 90 90 Calm 29.97 1015 10 16.0934 0 0
6:15 am 06:15 Sunny 59 15 56 13.5 91 91 Calm 29.97 1015 7 11.26538 0 0
6:35 am 06:35 Sunny 60 15.7 58 14.2 91 91 Calm 30 1016 10 16.0934 0 0
6:55 am 06:55 Sunny 60 15.3 57 14 92 92 Calm 30 1016 7 11.26538 0 0
7:15 am 07:15 Sunny 62 16.8 60 15.6 93 93 Calm 29.97 1015 7 11.26538 0 0
7:35 am 07:35 Partly Cloudy 65 18.5 61 16.1 86 86 Calm 29.97 1015 7 11.26538 0 0
7:55 am 07:55 Mostly Cloudy 66 18.8 61 16 84 84 Calm 29.97 1015 10 16.0934 0 0
8:15 am 08:15 Partly Cloudy 68 19.9 61 16.3 80 80 Calm 29.97 1015 10 16.0934 0 0
8:35 am 08:35 Partly Cloudy 69 20.3 62 16.5 79 79 WSW 3 6 29.94 1014 10 16.0934 0 0
8:55 am 08:55 Partly Cloudy 70 21.3 62 16.9 76 76 Calm 29.94 1014 10 16.0934 0 0
9:15 am 09:15 Mostly Cloudy 71 21.5 62 16.9 75 75 WNW 5 7 29.94 1014 10 16.0934 0 0
9:35 am 09:35 Mostly Cloudy 71 21.6 62 16.8 74 74 Calm 29.94 1014 10 16.0934 0 0
9:55 am 09:55 Cloudy 72 22.1 63 17 73 73 Calm 29.94 1014 10 16.0934 0 0
10:15 am 10:15 Cloudy 72 22.3 63 17.1 73 73 WNW 6 9 29.94 1014 10 16.0934 0 0
10:35 am 10:35 Mostly Cloudy 72 22.3 63 17 72 72 NW 5 7 29.94 1014 10 16.0934 0 0
10:55 am 10:55 Cloudy 73 22.7 63 17 70 70 Calm 29.94 1014 10 16.0934 0 0
11:15 am 11:15 Mostly Cloudy 74 23.6 62 16.9 66 66 Calm 29.94 1014 10 16.0934 0 0
11:35 am 11:35 Partly Cloudy 76 24.4 63 17.2 64 64 SW 3 6 29.91 1013 10 16.0934 0 0
11:55 am 11:55 Partly Cloudy 78 25.5 63 17 59 59 Calm 29.91 1013 10 16.0934 0 0
12:15 pm 12:15 Partly Cloudy 80 26.5 62 16.7 55 55 SSE 5 7 29.91 1013 10 16.0934 0 0
12:35 pm 12:35 Partly Cloudy 78 25.8 61 16.2 55 55 SSW 5 7 29.91 1013 10 16.0934 0 0
12:55 pm 12:55 Partly Cloudy 80 26.7 61 16.1 52 52 Calm 29.91 1013 10 16.0934 0 0
1:15 pm 13:15 Mostly Cloudy with Nearby Thunderstorms 80 26.9 61 16.3 52 52 S 6 9 29.91 1013 10 16.0934 0 0
1:35 pm 13:35 Mostly Cloudy 82 27.8 59 14.8 45 45 Calm 29.88 1012 10 16.0934 0 0
1:55 pm 13:55 Partly Cloudy 83 28.3 58 14.3 42 42 SE 5 7 29.88 1012 10 16.0934 0 0
2:15 pm 14:15 Mostly Cloudy 81 27.2 60 15.7 49 49 E 10 17 29.91 1013 10 16.0934 0 0
2:35 pm 14:35 Cloudy 80 26.5 60 15.6 51 51 N 8 13 29.91 1013 10 16.0934 0 0
2:55 pm 14:55 Cloudy with Nearby Thunderstorms 76 24.6 59 15.1 56 56 NNW 13 20 29.91 1013 10 16.0934 0 0
3:15 pm 15:15 Cloudy with Light Thunderstorms 74 23.3 60 15.7 62 62 NW 12 19 29.94 1014 10 16.0934 0 0
3:35 pm 15:35 Cloudy 71 21.5 56 13.3 60 60 SE 7 11 29.94 1014 0.75 1.207005 0.52 13.208
3:55 pm 15:55 Cloudy with Heavy Rain 68 20 60 15.4 75 75 WNW 12 19 29.97 1015 2 3.21868 1.01 25.654
4:15 pm 16:15 Cloudy 68 19.9 62 16.6 81 81 NNW 14 22 29.97 1015 1.5 2.41401 0.3 7.62
4:35 pm 16:35 Cloudy with Light Rain 69 20.5 63 17.4 82 82 NNW 12 19 29.91 1013 10 16.0934 0.31 7.874
4:55 pm 16:55 Partly Cloudy 73 22.5 64 17.8 75 75 NNW 10 17 29.91 1013 10 16.0934 0.31 7.874
5:15 pm 17:15 Sunny 73 23 63 17.4 71 71 N 12 19 29.91 1013 10 16.0934 0 0
5:35 pm 17:35 Sunny 74 23.6 63 17.1 67 67 N 13 20 29.88 1012 10 16.0934 0 0
5:55 pm 17:55 Sunny 75 24 60 15.8 60 60 N 16 26 29.88 1012 10 16.0934 0 0
6:15 pm 18:15 Sunny 74 23.2 61 15.9 64 64 N 15 24 29.91 1013 10 16.0934 0 0
6:35 pm 18:35 Sunny 74 23.1 61 15.9 64 64 N 13 20 29.91 1013 10 16.0934 0 0
6:55 pm 18:55 Sunny 73 22.7 59 14.8 61 61 N 8 13 29.91 1013 10 16.0934 0 0
7:15 pm 19:15 Sunny 74 23.1 59 15.1 61 61 N 12 19 29.91 1013 10 16.0934 0 0
7:35 pm 19:35 Sunny 74 23.5 59 15 59 59 N 8 13 29.88 1012 10 16.0934 0 0
7:55 pm 19:55 Sunny 74 23.5 58 14.7 58 58 N 7 11 29.88 1012 10 16.0934 0 0
8:15 pm 20:15 Sunny 73 22.9 58 14.7 60 60 N 3 6 29.91 1013 10 16.0934 0 0
8:35 pm 20:35 Sunny 72 22.1 59 15.2 65 65 Calm 29.91 1013 10 16.0934 0 0
8:55 pm 20:55 Sunny 71 21.7 59 14.9 65 65 NW 6 9 29.91 1013 10 16.0934 0 0
9:15 pm 21:15 Clear 69 20.7 58 14.4 67 67 NNW 6 9 29.91 1013 10 16.0934 0 0
9:35 pm 21:35 Clear 67 19.6 58 14.5 73 73 NW 5 7 29.97 1015 10 16.0934 0 0
9:55 pm 21:55 Clear 67 19.6 58 14.5 73 73 ESE 7 11 29.97 1015 10 16.0934 0 0
10:15 pm 22:15 Clear 65 18.3 58 14.6 79 79 Calm 29.97 1015 10 16.0934 0 0
10:35 pm 22:35 Clear 66 19.1 58 14.6 75 75 Calm 29.97 1015 10 16.0934 0 0
10:55 pm 22:55 Clear 64 18 59 15.1 83 83 Calm 29.97 1015 10 16.0934 0 0
11:15 pm 23:15 Partly Cloudy 64 17.7 59 15 84 84 NW 6 9 29.97 1015 10 16.0934 0 0
11:35 pm 23:35 Clear 64 17.5 59 14.8 84 84 NW 3 6 29.97 1015 10 16.0934 0 0
11:55 pm 23:55 Partly Cloudy 63 17.2 59 14.9 86 86 WNW 3 6 29.97 1015 10 16.0934 0 0

Powered by AerisWeather